Погода в Волосе

Греция     39°21′49″N   22°56′49″E
темп.,
°C
ветер,
м/с
пор.,
м/с
влажн.,
%
обл.,
%
осадки,
мм/ч
давл.,
гПа
погр.,
м
8 августа, пн
пн800:00+27ссз475961 0.1 1010267
03:00+25сз44650 0.9 1011114
06:00+25сз55660 0.1 1011179
09:00+27ссз46540 0.1 1012603
12:00+29с25480 0.1 1013595
15:00+30всв48410 0.1 10121082
18:00+31св14470 0.0 1011629
21:00+29ссз23490 0.0 101115
9 августа, вт
вт900:00+27ссз33520 0.0 101341
03:00+26ссз45580 0.0 1013112
06:00+25ссз55610 0.0 1012137
09:00+28сз46470 0.0 1013508
12:00+30св35380 0.0 1013705
15:00+31вюв35380 0.0 1013811
18:00+30ююз23390 0.0 1011596
21:00+29ссз11451 0.0 101012
10 августа, ср
ср1000:00+28ссз33395 0.0 101120
03:00+27с125110 0.0 101118
06:00+27ссз344042 0.0 101171
09:00+28сз45405 0.0 1012404
12:00+31св23380 0.0 1012851
15:00+32в34370 0.0 1011874
18:00+31юв34370 0.0 1010610
21:00+29ююз014610 0.0 101012
11 августа, чт
чт1100:00+29с224139 0.0 101014
03:00+28с224615 0.0 101123
06:00+26св33615 0.0 101177
09:00+27ююв12565 0.0 1013426
12:00+28ююв43573 0.0 1013747
15:00+29юв55555 0.0 1012697
18:00+28вюв66540 0.0 1011523
21:00+26сз2259100 0.0 1013113
12 августа, пт
пт1200:00+26ссз3460100 0.0 1013242
03:00+25сз446735 0.0 1012246
06:00+24сз33695 0.0 1013190
09:00+26сз33585 0.0 1013376
12:00+27ююв22499 0.0 1013662
15:00+29юв56530 0.0 1012745
18:00+29ю2354100 0.1 1012365
21:00+23сз101368100 0.2 1014529